| time (UTC) | temp F | wind direction | speed MPH | gust MPH | rain 1hr in | rain 24hr in | rain mn in | humidity % | barometer mb |
| 20260505211253 | 79 | 240 | 8.0 | 11.0 | 0.00 | 0.05 | 0.05 | 30 | 1008.6 |
| 20260505210749 | 79 | 210 | 2.0 | 12.0 | 0.00 | 0.05 | 0.05 | 31 | 1008.9 |
| 20260505210246 | 79 | 167 | 6.0 | 10.0 | 0.00 | 0.05 | 0.05 | 30 | 1008.9 |
| 20260505205743 | 80 | 229 | 7.0 | 11.0 | 0.00 | 0.05 | 0.05 | 31 | 1009.1 |
| 20260505205242 | 80 | 240 | 2.0 | 19.0 | 0.00 | 0.05 | 0.05 | 30 | 1008.8 |
| 20260505204737 | 80 | 248 | 5.0 | 16.0 | 0.00 | 0.05 | 0.05 | 30 | 1009.0 |
| 20260505204236 | 80 | 164 | 8.0 | 17.0 | 0.00 | 0.05 | 0.05 | 29 | 1009.1 |
| 20260505203732 | 79 | 175 | 10.0 | 14.0 | 0.00 | 0.05 | 0.05 | 29 | 1008.9 |
| 20260505203229 | 80 | 145 | 12.0 | 20.0 | 0.00 | 0.05 | 0.05 | 28 | 1009.1 |
| 20260505202725 | 80 | 179 | 9.0 | 21.0 | 0.00 | 0.05 | 0.05 | 28 | 1009.1 |
| 20260505202221 | 80 | 256 | 7.0 | 12.0 | 0.00 | 0.05 | 0.05 | 28 | 1009.1 |
| 20260505201718 | 79 | 177 | 3.0 | 11.0 | 0.00 | 0.05 | 0.05 | 29 | 1008.9 |
| 20260505201216 | 79 | 168 | 8.0 | 17.0 | 0.00 | 0.05 | 0.05 | 28 | 1009.1 |
| 20260505200714 | 79 | 189 | 4.0 | 14.0 | 0.00 | 0.05 | 0.05 | 28 | 1009.1 |
| 20260505200211 | 80 | 194 | 6.0 | 16.0 | 0.00 | 0.05 | 0.05 | 27 | 1009.2 |
| 20260505195706 | 81 | 197 | 12.0 | 13.0 | 0.00 | 0.05 | 0.05 | 27 | 1009.2 |
| 20260505195204 | 81 | 242 | 3.0 | 15.0 | 0.00 | 0.05 | 0.05 | 28 | 1009.0 |
| 20260505194701 | 80 | 180 | 8.0 | 17.0 | 0.00 | 0.05 | 0.05 | 26 | 1008.9 |
| 20260505194157 | 81 | 176 | 7.0 | 22.0 | 0.00 | 0.05 | 0.05 | 27 | 1009.2 |
| 20260505193653 | 80 | 282 | 8.0 | 17.0 | 0.00 | 0.05 | 0.05 | 27 | 1009.1 |
| 20260505193151 | 80 | 176 | 13.0 | 15.0 | 0.00 | 0.05 | 0.05 | 26 | 1009.1 |
| 20260505192649 | 80 | 172 | 23.0 | 27.0 | 0.00 | 0.05 | 0.05 | 26 | 1009.4 |
| 20260505192146 | 80 | 164 | 10.0 | 18.0 | 0.00 | 0.05 | 0.05 | 26 | 1009.0 |
| 20260505191645 | 80 | 169 | 10.0 | 16.0 | 0.00 | 0.05 | 0.05 | 27 | 1009.3 |
| 20260505191143 | 81 | 161 | 13.0 | 17.0 | 0.00 | 0.05 | 0.05 | 27 | 1009.7 |
| 20260505190638 | 80 | 150 | 11.0 | 13.0 | 0.00 | 0.05 | 0.05 | 28 | 1009.3 |
| 20260505190138 | 80 | 166 | 7.0 | 13.0 | 0.00 | 0.05 | 0.05 | 28 | 1009.4 |
| 20260505185635 | 80 | 122 | 9.0 | 19.0 | 0.00 | 0.05 | 0.05 | 27 | 1009.5 |
| 20260505185131 | 81 | 249 | 6.0 | 23.0 | 0.00 | 0.05 | 0.05 | 27 | 1009.7 |
| 20260505184628 | 81 | 130 | 6.0 | 19.0 | 0.00 | 0.05 | 0.05 | 28 | 1009.7 |
| 20260505184125 | 81 | 51 | 4.0 | 8.0 | 0.00 | 0.05 | 0.05 | 29 | 1009.9 |
| 20260505183622 | 80 | 193 | 11.0 | 24.0 | 0.00 | 0.05 | 0.05 | 28 | 1009.5 |
| 20260505183119 | 81 | 174 | 22.0 | 25.0 | 0.00 | 0.05 | 0.05 | 28 | 1009.5 |
| 20260505182615 | 80 | 184 | 11.0 | 24.0 | 0.00 | 0.05 | 0.05 | 30 | 1009.8 |
| 20260505182112 | 81 | 173 | 8.0 | 19.0 | 0.00 | 0.05 | 0.05 | 30 | 1009.9 |
| 20260505181609 | 82 | 158 | 5.0 | 12.0 | 0.00 | 0.05 | 0.05 | 30 | 1009.9 |
| 20260505181106 | 80 | 203 | 2.0 | 7.0 | 0.00 | 0.05 | 0.05 | 31 | 1010.0 |
| 20260505180602 | 81 | 131 | 8.0 | 15.0 | 0.00 | 0.05 | 0.05 | 30 | 1009.9 |
| 20260505180100 | 80 | 205 | 6.0 | 11.0 | 0.00 | 0.05 | 0.05 | 32 | 1010.1 |
| 20260505175555 | 80 | 164 | 10.0 | 15.0 | 0.00 | 0.05 | 0.05 | 32 | 1010.3 |
| 20260505175052 | 80 | 219 | 9.0 | 17.0 | 0.00 | 0.05 | 0.05 | 34 | 1010.2 |
| 20260505174549 | 80 | 186 | 11.0 | 23.0 | 0.00 | 0.05 | 0.05 | 34 | 1010.2 |
| 20260505174045 | 80 | 182 | 11.0 | 12.0 | 0.00 | 0.05 | 0.05 | 35 | 1010.2 |
| 20260505173542 | 80 | 112 | 9.0 | 20.0 | 0.00 | 0.05 | 0.05 | 34 | 1010.3 |
| 20260505173039 | 81 | 188 | 8.0 | 13.0 | 0.00 | 0.05 | 0.05 | 33 | 1010.3 |
| 20260505172537 | 80 | 184 | 3.0 | 15.0 | 0.00 | 0.05 | 0.05 | 34 | 1010.4 |
| 20260505172033 | 80 | 159 | 9.0 | 11.0 | 0.00 | 0.05 | 0.05 | 34 | 1010.3 |
| 20260505171528 | 80 | 200 | 3.0 | 13.0 | 0.00 | 0.05 | 0.05 | 35 | 1010.3 |
| 20260505171025 | 80 | 146 | 9.0 | 15.0 | 0.00 | 0.05 | 0.05 | 35 | 1010.6 |
| 20260505170522 | 80 | 192 | 3.0 | 7.0 | 0.00 | 0.05 | 0.05 | 36 | 1010.4 |
| 20260505170018 | 80 | 229 | 10.0 | 12.0 | 0.00 | 0.05 | 0.05 | 35 | 1010.5 |
| 20260505165513 | 80 | 170 | 5.0 | 7.0 | 0.00 | 0.05 | 0.05 | 37 | 1010.6 |
| 20260505165009 | 79 | 183 | 4.0 | 11.0 | 0.00 | 0.05 | 0.05 | 37 | 1010.9 |
| 20260505164505 | 79 | 184 | 6.0 | 7.0 | 0.00 | 0.05 | 0.05 | 37 | 1010.8 |
| 20260505164004 | 79 | 165 | 6.0 | 13.0 | 0.00 | 0.05 | 0.05 | 36 | 1010.8 |
| 20260505163502 | 80 | 171 | 6.0 | 10.0 | 0.00 | 0.05 | 0.05 | 36 | 1010.9 |
| 20260505163003 | 79 | 282 | 5.0 | 7.0 | 0.00 | 0.05 | 0.05 | 37 | 1011.2 |
| 20260505162457 | 79 | 157 | 5.0 | 8.0 | 0.00 | 0.05 | 0.05 | 37 | 1011.1 |
| 20260505161953 | 79 | 138 | 3.0 | 9.0 | 0.00 | 0.05 | 0.05 | 37 | 1010.9 |
| 20260505161450 | 79 | 171 | 2.0 | 5.0 | 0.00 | 0.05 | 0.05 | 38 | 1011.0 |
| 20260505160948 | 79 | 309 | 4.0 | 5.0 | 0.00 | 0.05 | 0.05 | 38 | 1011.2 |
| 20260505160446 | 78 | 281 | 3.0 | 8.0 | 0.00 | 0.05 | 0.05 | 38 | 1011.2 |
| 20260505152922 | 75 | 216 | 5.0 | 10.0 | 0.00 | 0.05 | 0.05 | 42 | 1011.7 |
| 20260505152419 | 74 | 290 | 2.0 | 10.0 | 0.00 | 0.05 | 0.05 | 44 | 1011.7 |
| 20260505151919 | 74 | 159 | 5.0 | 11.0 | 0.00 | 0.05 | 0.05 | 43 | 1011.4 |
| 20260505151415 | 73 | 251 | 4.0 | 8.0 | 0.00 | 0.05 | 0.05 | 45 | 1011.5 |
| 20260505150913 | 73 | 191 | 6.0 | 13.0 | 0.00 | 0.05 | 0.05 | 45 | 1011.9 |
| 20260505150410 | 73 | 162 | 4.0 | 4.0 | 0.00 | 0.05 | 0.05 | 46 | 1011.7 |
| 20260505140340 | 67 | 21 | 1.0 | 6.0 | 0.00 | 0.05 | 0.05 | 56 | 1012.4 |
| 20260505130303 | 61 | 154 | 7.0 | 7.0 | 0.00 | 0.05 | 0.05 | 68 | 1012.4 |
| 20260505124754 | 60 | 170 | 4.0 | 8.0 | 0.00 | 0.05 | 0.05 | 69 | 1012.2 |
| 20260505124251 | 60 | 129 | 2.0 | 5.0 | 0.00 | 0.05 | 0.05 | 70 | 1012.2 |
| 20260505123746 | 60 | 144 | 3.0 | 4.0 | 0.00 | 0.05 | 0.05 | 74 | 1012.1 |
| 20260505123243 | 60 | 116 | 1.0 | 3.0 | 0.00 | 0.05 | 0.05 | 75 | 1012.3 |
| 20260505122740 | 59 | 131 | 3.0 | 4.0 | 0.00 | 0.05 | 0.05 | 72 | 1012.2 |
| 20260505122237 | 59 | 180 | 2.0 | 8.0 | 0.00 | 0.05 | 0.05 | 72 | 1012.1 |
| 20260505121733 | 59 | 197 | 1.0 | 5.0 | 0.00 | 0.05 | 0.05 | 75 | 1012.0 |
| 20260505121230 | 59 | 146 | 4.0 | 6.0 | 0.00 | 0.05 | 0.05 | 74 | 1011.9 |
| 20260505120726 | 58 | 153 | 1.0 | 7.0 | 0.00 | 0.05 | 0.05 | 75 | 1012.0 |
| 20260505120223 | 58 | 129 | 5.0 | 7.0 | 0.00 | 0.05 | 0.05 | 79 | 1012.1 |
| 20260505115721 | 57 | 157 | 5.0 | 5.0 | 0.00 | 0.05 | 0.05 | 81 | 1012.1 |
| 20260505115219 | 56 | 149 | 3.0 | 4.0 | 0.00 | 0.05 | 0.05 | 80 | 1011.7 |
| 20260505114716 | 56 | 155 | 3.0 | 4.0 | 0.00 | 0.05 | 0.05 | 87 | 1011.9 |
| 20260505114212 | 56 | 150 | 4.0 | 5.0 | 0.00 | 0.05 | 0.05 | 85 | 1011.9 |
| 20260505113709 | 54 | 154 | 3.0 | 5.0 | 0.00 | 0.05 | 0.05 | 91 | 1011.9 |
| 20260505113206 | 53 | 120 | 2.0 | 2.0 | 0.00 | 0.05 | 0.05 | 95 | 1012.0 |
| 20260505112702 | 53 | 134 | 3.0 | 4.0 | 0.00 | 0.05 | 0.05 | 96 | 1011.9 |
| 20260505112200 | 52 | 185 | 0.0 | 2.0 | 0.00 | 0.05 | 0.05 | 96 | 1012.1 |
| 20260505111659 | 52 | 169 | 1.0 | 2.0 | 0.00 | 0.05 | 0.05 | 96 | 1012.1 |
| 20260505111155 | 52 | 41 | 1.0 | 2.0 | 0.00 | 0.05 | 0.05 | 96 | 1012.2 |
| 20260505110651 | 52 | 66 | 1.0 | 2.0 | 0.00 | 0.05 | 0.05 | 96 | 1012.0 |
| 20260505110149 | 51 | 28 | 2.0 | 2.0 | 0.02 | 0.05 | 0.05 | 95 | 1012.0 |
| 20260505102125 | 52 | 121 | 2.0 | 2.0 | 0.00 | 0.04 | 0.04 | 94 | 1011.7 |
| 20260505101623 | 52 | 36 | 0.0 | 2.0 | 0.00 | 0.04 | 0.04 | 94 | 1011.8 |
| 20260505101119 | 52 | 69 | 2.0 | 3.0 | 0.00 | 0.04 | 0.04 | 94 | 1011.8 |
| 20260505100615 | 52 | 66 | 2.0 | 2.0 | 0.00 | 0.04 | 0.04 | 93 | 1011.7 |
| 20260505100113 | 52 | 56 | 2.0 | 3.0 | 0.02 | 0.04 | 0.04 | 92 | 1011.7 |
| 20260505095609 | 52 | 39 | 0.0 | 2.0 | 0.05 | 0.04 | 0.04 | 92 | 1011.6 |
| 20260505095105 | 52 | 137 | 2.0 | 3.0 | 0.02 | 0.04 | 0.04 | 91 | 1011.6 |
| 20260505094602 | 53 | 42 | 5.0 | 6.0 | 0.02 | 0.04 | 0.04 | 90 | 1011.9 |
| 20260505094058 | 52 | 26 | 2.0 | 4.0 | 0.00 | 0.03 | 0.03 | 90 | 1011.9 |
| 20260505093554 | 53 | 116 | 2.0 | 4.0 | 0.00 | 0.03 | 0.03 | 88 | 1011.7 |
| 20260505093052 | 53 | 60 | 0.0 | 2.0 | 0.05 | 0.03 | 0.03 | 85 | 1011.6 |
| 20260505092549 | 54 | 59 | 3.0 | 5.0 | 0.14 | 0.03 | 0.03 | 81 | 1011.5 |
| 20260505092048 | 55 | 4 | 1.0 | 2.0 | 0.09 | 0.02 | 0.02 | 77 | 1011.8 |
| 20260505091544 | 55 | 44 | 4.0 | 4.0 | 0.05 | 0.01 | 0.01 | 73 | 1011.6 |
| 20260505091043 | 55 | 55 | 2.0 | 4.0 | 0.00 | 0.00 | 0.00 | 72 | 1011.9 |
| 20260505090540 | 55 | 345 | 1.0 | 2.0 | 0.00 | 0.00 | 0.00 | 71 | 1011.8 |
| 20260505090038 | 56 | 184 | 1.0 | 2.0 | 0.00 | 0.00 | 0.00 | 69 | 1011.6 |
| 20260505085535 | 56 | 131 | 2.0 | 3.0 | 0.00 | 0.00 | 0.00 | 69 | 1011.4 |
| 20260505085033 | 56 | 176 | 2.0 | 2.0 | 0.00 | 0.00 | 0.00 | 69 | 1011.6 |
| 20260505084531 | 56 | 323 | 2.0 | 6.0 | 0.00 | 0.00 | 0.00 | 68 | 1011.8 |
| 20260505084029 | 56 | 48 | 7.0 | 7.0 | 0.00 | 0.00 | 0.00 | 68 | 1011.0 |
| 20260505083526 | 56 | 156 | 3.0 | 5.0 | 0.00 | 0.00 | 0.00 | 66 | 1011.0 |
| 20260505083023 | 56 | 167 | 2.0 | 2.0 | 0.00 | 0.00 | 0.00 | 66 | 1011.2 |
| 20260505082518 | 56 | 179 | 2.0 | 3.0 | 0.00 | 0.00 | 0.00 | 66 | 1011.2 |
| 20260505082015 | 56 | 163 | 2.0 | 4.0 | 0.00 | 0.00 | 0.00 | 66 | 1011.1 |
| 20260505081512 | 57 | 155 | 4.0 | 4.0 | 0.00 | 0.00 | 0.00 | 64 | 1011.1 |
| 20260505081009 | 57 | 169 | 2.0 | 3.0 | 0.00 | 0.00 | 0.00 | 63 | 1010.9 |
| 20260505080505 | 57 | 148 | 3.0 | 3.0 | 0.00 | 0.00 | 0.00 | 62 | 1010.9 |
| 20260505080001 | 58 | 165 | 2.0 | 3.0 | 0.00 | 0.00 | 0.00 | 61 | 1010.9 |
| 20260505075458 | 59 | 162 | 2.0 | 4.0 | 0.00 | 0.00 | 0.00 | 60 | 1011.2 |
| 20260505074954 | 58 | 168 | 3.0 | 6.0 | 0.00 | 0.00 | 0.00 | 60 | 1011.1 |
| 20260505074452 | 58 | 171 | 0.0 | 3.0 | 0.00 | 0.00 | 0.00 | 60 | 1011.2 |
| 20260505073949 | 57 | 168 | 1.0 | 2.0 | 0.00 | 0.00 | 0.00 | 61 | 1011.3 |
| 20260505073447 | 57 | 161 | 2.0 | 3.0 | 0.00 | 0.00 | 0.00 | 60 | 1011.0 |
| 20260505072944 | 58 | 151 | 3.0 | 3.0 | 0.00 | 0.00 | 0.00 | 60 | 1011.1 |
| 20260505072440 | 57 | 143 | 2.0 | 4.0 | 0.00 | 0.00 | 0.00 | 60 | 1010.9 |
| 20260505071936 | 58 | 151 | 3.0 | 4.0 | 0.00 | 0.00 | 0.00 | 59 | 1010.9 |
| 20260505071432 | 58 | 148 | 1.0 | 4.0 | 0.00 | 0.00 | 0.00 | 59 | 1011.1 |
| 20260505070930 | 58 | 157 | 3.0 | 4.0 | 0.00 | 0.00 | 0.00 | 59 | 1011.3 |
| 20260505070427 | 58 | 163 | 2.0 | 4.0 | 0.00 | 0.00 | 0.00 | 59 | 1011.2 |
| 20260505065922 | 58 | 145 | 1.0 | 2.0 | 0.00 | 0.00 | 0.00 | 58 | 1011.2 |
| 20260505065419 | 58 | 102 | 2.0 | 2.0 | 0.00 | 0.00 | 0.00 | 58 | 1011.2 |
| 20260505064916 | 58 | 310 | 0.0 | 2.0 | 0.00 | 0.00 | 0.00 | 58 | 1011.2 |
| 20260505064413 | 58 | 145 | 3.0 | 4.0 | 0.00 | 0.00 | 0.00 | 57 | 1011.1 |
| 20260505063911 | 59 | 123 | 2.0 | 3.0 | 0.00 | 0.00 | 0.00 | 57 | 1011.1 |
| 20260505063407 | 59 | 152 | 3.0 | 4.0 | 0.00 | 0.00 | 0.00 | 56 | 1011.0 |
| 20260505062904 | 59 | 129 | 2.0 | 4.0 | 0.00 | 0.00 | 0.00 | 56 | 1011.1 |
| 20260505062401 | 59 | 156 | 2.0 | 4.0 | 0.00 | 0.00 | 0.00 | 56 | 1011.1 |
| 20260505061858 | 59 | 169 | 2.0 | 4.0 | 0.00 | 0.00 | 0.00 | 57 | 1011.2 |
| 20260505061356 | 59 | 141 | 4.0 | 5.0 | 0.00 | 0.00 | 0.00 | 55 | 1011.3 |
| 20260505060853 | 59 | 146 | 0.0 | 7.0 | 0.00 | 0.00 | 0.00 | 55 | 1011.1 |
| 20260505060350 | 58 | 87 | 1.0 | 3.0 | 0.00 | 0.00 | 0.00 | 57 | 1011.2 |
| 20260505055846 | 59 | 110 | 1.0 | 5.0 | 0.00 | 0.00 | 0.00 | 55 | 1011.1 |
| 20260505055342 | 59 | 122 | 4.0 | 4.0 | 0.00 | 0.00 | 0.00 | 55 | 1011.1 |
| 20260505054839 | 59 | 75 | 0.0 | 4.0 | 0.00 | 0.00 | 0.00 | 55 | 1011.2 |
| 20260505054337 | 59 | 92 | 2.0 | 3.0 | 0.00 | 0.00 | 0.00 | 55 | 1011.0 |
| 20260505053835 | 59 | 121 | 3.0 | 5.0 | 0.00 | 0.00 | 0.00 | 55 | 1011.1 |
| 20260505053332 | 59 | 148 | 3.0 | 5.0 | 0.00 | 0.00 | 0.00 | 54 | 1011.2 |
| 20260505052828 | 59 | 120 | 3.0 | 4.0 | 0.00 | 0.00 | 0.00 | 54 | 1011.0 |
| 20260505052325 | 59 | 147 | 3.0 | 3.0 | 0.00 | 0.00 | 0.00 | 54 | 1011.2 |
| 20260505051822 | 59 | 98 | 2.0 | 4.0 | 0.00 | 0.00 | 0.00 | 54 | 1011.1 |
| 20260505051320 | 59 | 133 | 2.0 | 3.0 | 0.00 | 0.00 | 0.00 | 54 | 1011.3 |
| 20260505050818 | 59 | 115 | 2.0 | 4.0 | 0.00 | 0.00 | 0.00 | 53 | 1011.1 |
| 20260505050316 | 59 | 159 | 6.0 | 6.0 | 0.00 | 0.00 | 0.00 | 52 | 1011.2 |
| 20260505041746 | 57 | 95 | 2.0 | 4.0 | 0.00 | 0.00 | 0.00 | 57 | 1011.1 |
| 20260505041243 | 58 | 166 | 2.0 | 5.0 | 0.00 | 0.00 | 0.00 | 56 | 1011.1 |
| 20260505040740 | 59 | 152 | 4.0 | 4.0 | 0.00 | 0.00 | 0.00 | 55 | 1011.2 |
| 20260505040238 | 58 | 114 | 3.0 | 4.0 | 0.00 | 0.00 | 0.00 | 53 | 1010.9 |
| 20260505035735 | 58 | 125 | 4.0 | 4.0 | 0.00 | 0.00 | 0.00 | 53 | 1011.0 |
| 20260505035230 | 58 | 187 | 2.0 | 5.0 | 0.00 | 0.00 | 0.00 | 56 | 1011.1 |
| 20260505034727 | 58 | 101 | 3.0 | 3.0 | 0.00 | 0.00 | 0.00 | 55 | 1011.1 |
| 20260505034224 | 58 | 130 | 4.0 | 4.0 | 0.00 | 0.00 | 0.00 | 53 | 1011.2 |
| 20260505033721 | 59 | 119 | 3.0 | 5.0 | 0.00 | 0.00 | 0.00 | 51 | 1011.0 |
| 20260505033219 | 59 | 172 | 3.0 | 4.0 | 0.00 | 0.00 | 0.00 | 51 | 1011.1 |
| 20260505032716 | 59 | 151 | 2.0 | 5.0 | 0.00 | 0.00 | 0.00 | 50 | 1011.0 |
| 20260505032212 | 59 | 139 | 2.0 | 4.0 | 0.00 | 0.00 | 0.00 | 51 | 1011.2 |
| 20260505031710 | 60 | 106 | 2.0 | 4.0 | 0.00 | 0.00 | 0.00 | 51 | 1011.2 |
| 20260505031206 | 59 | 136 | 4.0 | 4.0 | 0.00 | 0.00 | 0.00 | 50 | 1011.2 |
| 20260505030703 | 59 | 142 | 2.0 | 3.0 | 0.00 | 0.00 | 0.00 | 53 | 1011.1 |
| 20260505030159 | 59 | 121 | 2.0 | 4.0 | 0.00 | 0.00 | 0.00 | 51 | 1011.2 |
| 20260505025655 | 59 | 129 | 3.0 | 4.0 | 0.00 | 0.00 | 0.00 | 50 | 1011.1 |
| 20260505025153 | 59 | 87 | 2.0 | 3.0 | 0.00 | 0.00 | 0.00 | 49 | 1011.2 |
| 20260505024651 | 59 | 122 | 3.0 | 5.0 | 0.00 | 0.00 | 0.00 | 49 | 1011.2 |
| 20260505024147 | 60 | 132 | 3.0 | 3.0 | 0.00 | 0.00 | 0.00 | 50 | 1011.3 |
| 20260505023645 | 60 | 146 | 3.0 | 3.0 | 0.00 | 0.00 | 0.00 | 51 | 1011.4 |
| 20260505023142 | 59 | 108 | 2.0 | 4.0 | 0.00 | 0.00 | 0.00 | 50 | 1011.5 |
| 20260505022640 | 59 | 173 | 0.0 | 4.0 | 0.00 | 0.00 | 0.00 | 51 | 1011.4 |
| 20260505022137 | 58 | 124 | 3.0 | 4.0 | 0.00 | 0.00 | 0.00 | 53 | 1011.5 |
| 20260505021633 | 58 | 111 | 3.0 | 4.0 | 0.00 | 0.00 | 0.00 | 52 | 1011.6 |
| 20260505021130 | 58 | 111 | 2.0 | 2.0 | 0.00 | 0.00 | 0.00 | 53 | 1011.6 |
| 20260505020626 | 57 | 160 | 2.0 | 4.0 | 0.00 | 0.00 | 0.00 | 57 | 1011.6 |
| 20260505020122 | 57 | 64 | 2.0 | 3.0 | 0.00 | 0.00 | 0.00 | 57 | 1011.6 |
| 20260505015619 | 57 | 57 | 2.0 | 2.0 | 0.00 | 0.00 | 0.00 | 57 | 1011.5 |
| 20260505015116 | 57 | 154 | 0.0 | 2.0 | 0.00 | 0.00 | 0.00 | 58 | 1011.3 |
| 20260505014613 | 57 | 135 | 0.0 | 2.0 | 0.00 | 0.00 | 0.00 | 55 | 1011.3 |
| 20260505014110 | 57 | 39 | 2.0 | 2.0 | 0.00 | 0.00 | 0.00 | 54 | 1011.4 |
| 20260505013607 | 58 | 16 | 0.0 | 1.0 | 0.00 | 0.00 | 0.00 | 54 | 1011.3 |
| 20260505013104 | 58 | 73 | 2.0 | 2.0 | 0.00 | 0.00 | 0.00 | 54 | 1011.4 |
| 20260505012602 | 58 | 76 | 2.0 | 2.0 | 0.00 | 0.00 | 0.00 | 52 | 1011.3 |
| 20260505012059 | 59 | 46 | 2.0 | 2.0 | 0.00 | 0.00 | 0.00 | 53 | 1011.2 |
| 20260505011554 | 59 | 43 | 1.0 | 2.0 | 0.00 | 0.00 | 0.00 | 51 | 1011.2 |
| 20260505011052 | 59 | 48 | 0.0 | 1.0 | 0.00 | 0.00 | 0.00 | 51 | 1011.2 |
| 20260505010547 | 59 | 124 | 0.0 | 1.0 | 0.00 | 0.00 | 0.00 | 50 | 1011.2 |
| 20260505010044 | 60 | 113 | 0.0 | 1.0 | 0.00 | 0.00 | 0.00 | 50 | 1011.2 |
| 20260505005540 | 61 | 167 | 1.0 | 1.0 | 0.00 | 0.00 | 0.00 | 48 | 1010.8 |
| 20260505005038 | 62 | 114 | 0.0 | 1.0 | 0.00 | 0.00 | 0.00 | 48 | 1010.9 |
| 20260505004535 | 62 | 226 | 0.0 | 1.0 | 0.00 | 0.00 | 0.00 | 46 | 1010.8 |
| 20260505004032 | 63 | 79 | 0.0 | 2.0 | 0.00 | 0.00 | 0.00 | 45 | 1011.0 |
| 20260505003529 | 63 | 123 | 2.0 | 2.0 | 0.00 | 0.00 | 0.00 | 43 | 1011.0 |
| 20260505003026 | 63 | 109 | 2.0 | 3.0 | 0.00 | 0.00 | 0.00 | 43 | 1010.7 |
| 20260505002521 | 64 | 100 | 0.0 | 2.0 | 0.00 | 0.00 | 0.00 | 42 | 1010.9 |
| 20260505002020 | 64 | 64 | 0.0 | 2.0 | 0.00 | 0.00 | 0.00 | 43 | 1010.8 |
| 20260505001517 | 65 | 149 | 1.0 | 2.0 | 0.00 | 0.00 | 0.00 | 41 | 1010.6 |
| 20260505001014 | 65 | 152 | 2.0 | 3.0 | 0.00 | 0.00 | 0.00 | 40 | 1010.8 |
| 20260505000511 | 66 | 97 | 1.0 | 3.0 | 0.00 | 0.00 | 0.00 | 40 | 1010.7 |
| 20260505000009 | 66 | 162 | 3.0 | 5.0 | 0.00 | 0.00 | 0.00 | 39 | 1010.8 |
| 20260504235505 | 66 | 180 | 1.0 | 4.0 | 0.00 | 0.00 | 0.00 | 39 | 1010.6 |
| 20260504235002 | 66 | 324 | 0.0 | 4.0 | 0.00 | 0.00 | 0.00 | 39 | 1010.6 |
| 20260504234459 | 66 | 154 | 2.0 | 3.0 | 0.00 | 0.00 | 0.00 | 39 | 1010.5 |
| 20260504233955 | 67 | 97 | 2.0 | 6.0 | 0.00 | 0.00 | 0.00 | 38 | 1010.4 |
| 20260504233451 | 67 | 119 | 4.0 | 5.0 | 0.00 | 0.00 | 0.00 | 38 | 1010.3 |
| 20260504232948 | 67 | 156 | 4.0 | 4.0 | 0.00 | 0.00 | 0.00 | 38 | 1010.2 |
| 20260504232445 | 67 | 166 | 7.0 | 7.0 | 0.00 | 0.00 | 0.00 | 37 | 1010.2 |
| 20260504231943 | 68 | 19 | 2.0 | 5.0 | 0.00 | 0.00 | 0.00 | 37 | 1010.3 |
| 20260504231439 | 68 | 158 | 6.0 | 9.0 | 0.00 | 0.00 | 0.00 | 37 | 1010.1 |
| 20260504230935 | 68 | 152 | 4.0 | 6.0 | 0.00 | 0.00 | 0.00 | 37 | 1010.2 |
| 20260504230432 | 68 | 220 | 2.0 | 4.0 | 0.00 | 0.00 | 0.00 | 37 | 1009.9 |
| 20260504225931 | 68 | 113 | 6.0 | 10.0 | 0.00 | 0.00 | 0.00 | 36 | 1010.0 |
| 20260504225427 | 68 | 159 | 3.0 | 9.0 | 0.00 | 0.00 | 0.00 | 36 | 1009.8 |
| 20260504224925 | 68 | 174 | 4.0 | 8.0 | 0.00 | 0.00 | 0.00 | 36 | 1010.2 |
| 20260504224421 | 69 | 144 | 6.0 | 6.0 | 0.00 | 0.00 | 0.00 | 36 | 1010.1 |
| 20260504223919 | 69 | 227 | 6.0 | 12.0 | 0.00 | 0.00 | 0.00 | 35 | 1010.1 |
| 20260504223414 | 69 | 189 | 4.0 | 5.0 | 0.00 | 0.00 | 0.00 | 35 | 1010.1 |
| 20260504222910 | 69 | 172 | 4.0 | 9.0 | 0.00 | 0.00 | 0.00 | 35 | 1009.9 |
| 20260504222407 | 69 | 215 | 2.0 | 6.0 | 0.00 | 0.00 | 0.00 | 35 | 1009.9 |
| 20260504221906 | 69 | 142 | 6.0 | 7.0 | 0.00 | 0.00 | 0.00 | 34 | 1009.9 |
| 20260504221402 | 70 | 300 | 2.0 | 5.0 | 0.00 | 0.00 | 0.00 | 34 | 1010.2 |
| 20260504220859 | 70 | 216 | 2.0 | 12.0 | 0.00 | 0.00 | 0.00 | 34 | 1010.2 |
| 20260504220356 | 70 | 135 | 8.0 | 10.0 | 0.00 | 0.00 | 0.00 | 33 | 1009.9 |
| 20260504215853 | 71 | 149 | 7.0 | 9.0 | 0.00 | 0.00 | 0.00 | 33 | 1010.1 |
| 20260504215349 | 71 | 241 | 4.0 | 10.0 | 0.00 | 0.00 | 0.00 | 32 | 1010.2 |
| 20260504214845 | 72 | 266 | 4.0 | 4.0 | 0.00 | 0.00 | 0.00 | 33 | 1010.2 |
| 20260504214343 | 71 | 163 | 1.0 | 4.0 | 0.00 | 0.00 | 0.00 | 33 | 1010.2 |
| 20260504213839 | 71 | 234 | 4.0 | 10.0 | 0.00 | 0.00 | 0.00 | 32 | 1010.2 |
| 20260504213335 | 71 | 213 | 2.0 | 3.0 | 0.00 | 0.00 | 0.00 | 33 | 1010.3 |
| 20260504212833 | 71 | 163 | 6.0 | 10.0 | 0.00 | 0.00 | 0.00 | 31 | 1010.2 |
| 20260504212328 | 71 | 222 | 5.0 | 8.0 | 0.00 | 0.00 | 0.00 | 32 | 1010.3 |
| 20260504211827 | 71 | 157 | 7.0 | 9.0 | 0.00 | 0.00 | 0.00 | 32 | 1010.3 |